Weather History for KRNO - June, 2014

Change the Weather History Date:

Sunday, June 15, 2014

  Actual Average Record
Temperature  
Mean Temperature 69 °F 67 °F  
Max Temperature 80 °F 83 °F 101 °F (1940)
Min Temperature 57 °F 52 °F 30 °F (1945)
Degree Days  
Heating Degree Days 0 2  
Month to date heating degree days 1 42  
Since 1 June heating degree days 1 42  
Since 1 July heating degree days 4544 4910  
Cooling Degree Days 4 4  
Month to date cooling degree days 111 50  
Year to date cooling degree days 158 87  
Since 1 June cooling degree days 111 50  
Growing Degree Days 18 (Base 50)    
Moisture  
Dew Point 24 °F    
Average Humidity 24    
Maximum Humidity 39    
Minimum Humidity 8    
Precipitation  
Precipitation 0.00 in 0.02 in 0.65 in (1932)
Month to date precipitation T 0.30  
Year to date precipitation 2.00 4.07  
Snow  
Snow 0.00 in 0.00 in T in (1921)
Month to date snowfall 0.0 0.0  
Since 1 June snowfall 0.0 0.0  
Since 1 July snowfall 6.2 21.8  
Snow Depth 0.00 in    
Sea Level Pressure  
Sea Level Pressure 29.70 in    
Wind  
Wind Speed 11 mph (West)    
Max Wind Speed 24 mph    
Max Gust Speed 31 mph    
Visibility 10 miles    
Events      
T = Trace of Precipitation, MM = Missing Value Source: NWS Daily Summary

Daily Weather History Graph

Daily Weather History Graph

Search for Another Location

Airport or City:

Trip Planner

Search our weather history database for the weather conditions in past years. The results will help you decide how hot, cold, wet, or windy it might be!

Date:

Astronomy

Jun. 15, 2014 Rise Set
Actual Time 5:31 AM PDT 8:28 PM PDT
Civil Twilight 4:58 AM PDT 9:00 PM PDT
Nautical Twilight 4:17 AM PDT 9:41 PM PDT
Astronomical Twilight 3:30 AM PDT 10:29 PM PDT
Moon 10:42 PM PDT (6/15) 8:29 AM PDT (6/15)
Length of Visible Light 16h 01m
Length of Day
14h 56m
Waning Gibbous, 90% of the Moon is Illuminated
Jun 15
Waning Gibbous
Jun 19
Last Quarter
Jun 27
New
Jul 5
First Quarter
Jul 12
Full

Hourly Weather History & Observations

Time (PDT) Temp. Dew Point Humidity Pressure Visibility Wind Dir Wind Speed Gust Speed Precip Events Conditions
12:55 AM 64.0 °F 27.0 °F 25% 29.76 in 10.0 mi West 4.6 mph - N/A   Mostly Cloudy
1:55 AM 63.0 °F 24.1 °F 23% 29.75 in 10.0 mi NW 4.6 mph - N/A   Mostly Cloudy
2:55 AM 62.1 °F 21.9 °F 21% 29.74 in 10.0 mi WNW 4.6 mph - N/A   Mostly Cloudy
3:55 AM 60.8 °F 19.4 °F 20% 29.88 in 10.0 mi West 3.5 mph - N/A   Mostly Cloudy
4:55 AM 60.1 °F 19.0 °F 20% 29.73 in 10.0 mi WNW 10.4 mph - N/A   Mostly Cloudy
5:55 AM 59.0 °F 19.9 °F 22% 29.73 in 10.0 mi West 6.9 mph - N/A   Mostly Cloudy
6:55 AM 57.9 °F 32.0 °F 37% 29.74 in 10.0 mi SW 4.6 mph - N/A   Overcast
7:55 AM 61.0 °F 25.0 °F 25% 29.74 in 10.0 mi NE 6.9 mph - N/A   Overcast
8:55 AM 64.0 °F 19.9 °F 18% 29.73 in 10.0 mi SE 3.5 mph - N/A   Mostly Cloudy
9:55 AM 70.0 °F 7.0 °F 9% 29.70 in 10.0 mi NNW 11.5 mph 19.6 mph N/A   Mostly Cloudy
10:55 AM 73.9 °F 10.0 °F 9% 29.68 in 10.0 mi WNW 17.3 mph 23.0 mph N/A   Scattered Clouds
11:55 AM 75.0 °F 12.9 °F 9% 29.68 in 10.0 mi West 9.2 mph - N/A   Scattered Clouds
12:55 PM 78.1 °F 21.9 °F 12% 29.66 in 10.0 mi WNW 17.3 mph 25.3 mph N/A   Scattered Clouds
1:55 PM 79.0 °F 24.1 °F 13% 29.65 in 10.0 mi West 17.3 mph 23.0 mph N/A   Mostly Cloudy
2:55 PM 79.0 °F 26.1 °F 14% 29.64 in 10.0 mi West 18.4 mph 25.3 mph N/A   Scattered Clouds
3:55 PM 78.1 °F 26.1 °F 15% 29.64 in 10.0 mi West 18.4 mph 28.8 mph N/A   Scattered Clouds
4:55 PM 77.0 °F 28.0 °F 17% 29.64 in 10.0 mi West 15.0 mph 25.3 mph N/A   Mostly Cloudy
5:55 PM 75.9 °F 25.0 °F 15% 29.64 in 10.0 mi West 17.3 mph 27.6 mph N/A   Mostly Cloudy
6:55 PM 73.0 °F 26.1 °F 17% 29.66 in 10.0 mi WSW 18.4 mph 24.2 mph N/A   Mostly Cloudy
7:55 PM 69.1 °F 30.9 °F 24% 29.69 in 10.0 mi West 13.8 mph - N/A   Overcast
8:55 PM 66.9 °F 28.9 °F 24% 29.69 in 10.0 mi West 16.1 mph 23.0 mph N/A   Overcast
9:55 PM 66.0 °F 32.0 °F 28% 29.69 in 10.0 mi West 11.5 mph - N/A   Overcast
10:55 PM 64.9 °F 33.1 °F 31% 29.68 in 10.0 mi NW 11.5 mph - N/A   Overcast
11:55 PM 64.9 °F 33.1 °F 31% 29.68 in 10.0 mi Variable 3.5 mph - N/A   Overcast